Tracking 29747 objects as of 9-Oct-2024
HD Live streaming from Space Station
objects crossing your sky now

BREEZE-M DEB

Track BREEZE-M DEB now!
10-day predictions


NORAD ID: 38604
Int'l Code: 2008-011BB
Perigee: 516.6 km
Apogee: 26,551.6 km
Inclination: 48.9 °
Period: 465.8 minutes
Semi major axis: 19905 km
RCS: 0.0351 m2 (small)
Launch date: March 14, 2008
Source: Commonwealth of Independent States (former USSR) (CIS)
Launch site: TYURATAM MISSILE AND SPACE COMPLEX (TTMTR)

Note: This is SATELLITE DEBRIS
Your satellite tracking list
Your tracking list is empty




NASA's NSSDC Master Catalog

Two Line Element Set (TLE):
1 38604U 08011BB  24282.68075026  .00001313  00000-0  52020-2 0  9992
2 38604  48.8595 138.7997 6539764 101.3265 333.6515  3.09139844132478
Source of the keplerian elements: AFSPC